Content
SEND FEEDBACK

Daily
Averages
Monthly
Summary
United States of America

ST. LOUIS, MISSOURI


Home > North America > United States > Missouri
Elevation: 163 meters     Latitude: 38 45N     Longitude: 090 22W

WEATHER
 
SELECT A DAY
Number of Records: 196,500;   Date Range: 1/1/95 - 8/30/14
 
SHARE

PRINT THIS DATA

[ ← Previous Day ]
WEATHER ALMANAC - 6 JANUARY, 2013
[ Next Day → ]
[ °F ]   °C
Weather ElementAverageHighLow
Temperature-0.3 °C3.9 °C (1:54 am)-6.1 °C (10:54 pm)
Dewpoint-5.7 °C-1.1 °C (1:54 am)-8.3 °C (10:54 pm)
Humidity68.4 %86 % (9:54 pm)46 % (2:54 pm)
Barometer1025.4 hPa1030.1 hPa (10:54 pm)1019.6 hPa (1:54 am)
Wind Speed13 km/h31.5 km/h (6:54 am)
Wind Gust42.6 km/h (6:54 am)
Weather ElementAverage
Visibility16.1 km
Wind DirectionSSW (208.4 °)

Weather ElementTotal
Precipitation---
Heating Degree Days19.4 (Base 18.3)
Averaged from 25 records on 6 January, 2013
WEATHER CONDITIONS BREAKOUT
WIND DIRECTION BREAKOUT
WEATHER BY HOUR - 6 JANUARY, 2013
[ °F ]   °C
Local TimeTemperatureDewpointHumidityBarometerVisibilityWind DirectionWind SpeedGust SpeedPrecipitationEventsConditions
1:54 AM3.9 °C-1.1 °C70 %1019.6 hPa16.1 kmWest (270°)14.8 km/h33.3 km/hScattered Clouds
2:54 AM2.2 °C-1.7 °C76 %1020.3 hPa16.1 kmWest (260°)14.8 km/hClear
3:54 AM1.1 °C-2.2 °C79 %1020 hPa16.1 kmWest (270°)11.1 km/hClear
4:54 AM1.1 °C-2.8 °C75 %1020.7 hPa16.1 kmWest (270°)13 km/hClear
5:32 AM1 °C-3 °C75 %1020.3 hPa16.1 kmWest (280°)13 km/hMostly Cloudy
5:54 AM1.1 °C-3.3 °C73 %1021.7 hPa16.1 kmWNW (290°)20.4 km/hOvercast
6:54 AM0 °C-5.6 °C66 %1022.7 hPa16.1 kmWNW (290°)31.5 km/h42.6 km/hOvercast
7:54 AM0 °C-6.1 °C64 %1023.7 hPa16.1 kmWNW (290°)18.5 km/hOvercast
8:11 AM0 °C-6 °C64 %1023 hPa16.1 kmWest (280°)18.5 km/hOvercast
8:54 AM0.6 °C-5.6 °C64 %1024.7 hPa16.1 kmWNW (290°)18.5 km/hOvercast
9:54 AM0.6 °C-5.6 °C64 %1025.7 hPa16.1 kmWNW (300°)29.6 km/hOvercast
10:54 AM0.6 °C-5 °C66 %1026.4 hPa16.1 kmWNW (290°)22.2 km/h35.2 km/hOvercast
11:54 AM1.1 °C-5.6 °C61 %1026.1 hPa16.1 kmWNW (300°)22.2 km/h40.7 km/hMostly Cloudy
12:54 PM1.7 °C-5.6 °C59 %1025.7 hPa16.1 kmWest (270°)16.7 km/hClear
1:54 PM2.8 °C-6.1 °C52 %1026.4 hPa16.1 kmNW (320°)18.5 km/hClear
2:54 PM2.8 °C-7.8 °C46 %1026.8 hPa16.1 kmWNW (300°)18.5 km/h33.3 km/hClear
3:54 PM2.8 °C-7.8 °C46 %1027.8 hPa16.1 kmNNW (330°)14.8 km/hClear
4:54 PM-0.6 °C-7.2 °C61 %1028.4 hPa16.1 kmNW (310°)9.3 km/hClear
5:54 PM-2.2 °C-7.2 °C69 %1028.8 hPa16.1 kmCalmClear
6:54 PM-2.8 °C-7.2 °C72 %1029.5 hPa16.1 kmCalmClear
7:54 PM-3.9 °C-7.8 °C75 %1029.5 hPa16.1 kmCalmClear
8:54 PM-4.4 °C-7.8 °C77 %1029.5 hPa16.1 kmCalmClear
9:54 PM-6 °C-8 °C86 %1028.4 hPa16.1 kmCalmClear
10:54 PM-6.1 °C-8.3 °C85 %1030.1 hPa16.1 kmCalmClear
11:54 PM-6.1 °C-8.3 °C85 %1030.1 hPa16.1 kmCalmClear
Hourly data recorded from KSUS, located 0 kilometers away from St. Louis, Missouri







STORIES FROM OUR PARTNERS